Location: 22
(39.7117°N, 89.5929°W)
Time: 21:55:06
(UTC-05:00)

Vanguard 3 - Pass Details

Date: 08 February 2023
Orbit: 508 x 3249 km, 33.4° (Epoch: 24 March)

Event Time Altitude Azimuth Distance (km) Brightness Sun altitude
Rises 15:25:29 0° 199° (SSW) 2,993 11.1 19.4°
Reaches altitude 10° 15:28:21 10° 176° (S) 2,352 10.1 18.9°
Maximum altitude 15:31:44 16° 138° (SE) 2,289 9.5 18.4°
Drops below altitude 10° 15:36:08 10° 103° (ESE) 3,231 9.9 17.8°
Sets 15:41:12 0° 85° (E) 4,809 10.6 17.0°
